Regional Weather Roundup
Issued by NWS San Diego, CA

Current Version | Previous Version | Text Only | Print | Product List | Glossary On
Versions: 1 2 3 4 5 6 7 8 9 10 11 12 13 14 15 16 17 18 19 20 21 22 23 24 25 26 27 28 29 30 31 32 33 34 35 36 37 38 39 40 41 42 43 44 45 46 47 48 49 50
000
ASUS46 KSGX 020511
RWRSGX

SAN DIEGO HOURLY WEATHER ROUNDUP
NATIONAL WEATHER SERVICE SAN DIEGO CA
900 PM PST MON MAR 01 2021

NOTE: "FAIR" INDICATES FEW OR NO CLOUDS BELOW 12,000 FEET WITH NO
SIGNIFICANT WEATHER AND/OR OBSTRUCTIONS TO VISIBILITY.

CAZ042-043-060-061-PZZ750-775-020600-

GREATER SAN DIEGO AREA

CITY           SKY/WX    TMP DP  RH WIND       PRES   REMARKS
SAN DIEGO AP   CLEAR     58  39  49 CALM      30.09S
BROWN FIELD    CLEAR     51  34  52 NE3       30.07S
MIRAMAR MCAS   CLEAR     47  25  42 NE6       30.07S
MONTGOMERY FLD CLEAR     54  27  35 NE3       30.07S
GILLESPIE FLD  FAIR      50  25  37 NW5       30.07S
LEMON GROVE      N/A     55  30  38 CALM      30.05S

$$

NORTH SAN DIEGO COUNTY

CITY           SKY/WX    TMP DP  RH WIND       PRES   REMARKS
CAMP PENDLETON CLEAR     45  17  32 NE3       30.08R
OCEANSIDE AP   CLEAR     43  26  51 CALM      30.07R
OCEANSIDE HBR    N/A     52  26  36 E6        30.14S
VISTA            N/A     51  25  36 CALM      30.06S
CARLSBAD       CLEAR     56  20  24 E3        30.07R
ENCINITAS        N/A     52  29  40 CALM        N/A
LA JOLLA SCRIP   N/A     58  36  44 CALM      30.07S
FALLBROOK      FAIR      52  18  25 N5        30.08S
ESCONDIDO        N/A     56  28  33 CALM      30.07S
SAN MARCOS       N/A     55  22  27 CALM      30.11R
RANCHO BERNARD   N/A     55  26  33 NE1       30.07R

$$

EAST SAN DIEGO COUNTY

CITY           SKY/WX    TMP DP  RH WIND       PRES   REMARKS
RAMONA         CLEAR     48   8  19 E5        30.08R
LA MESA          N/A     56  25  30 CALM      30.03R
DESCANSO N       N/A     50  -2  11 NE12      30.10R

$$

ORANGE COUNTY AND THE LOS ANGELES BASIN

CITY           SKY/WX    TMP DP  RH WIND       PRES   REMARKS
JOHN WAYNE AP  CLEAR     59  28  30 E3        30.07R
LAGUNA BEACH     N/A     51  18  26 W1        30.06R
LAKE FOREST FR   N/A     55  16  21 NE2       29.95R
HUNTINGTON BCH   N/A     49  43  79 CALM      30.07R
LOS ALAMITOS   CLEAR     52  34  51 CALM      30.07R
FULLERTON      CLEAR     56  23  27 CALM      30.07R
LONG BEACH     CLEAR     58  19  22 CALM      30.07R
L.A. AP        CLEAR     60  16  18 W3        30.07R
L.A. DOWNTOWN  CLEAR     58  20  22 CALM      30.06R

$$

THE INLAND EMPIRE

CITY           SKY/WX    TMP DP  RH WIND       PRES   REMARKS
CORONA         CLEAR     59  13  16 SE6       30.08S
UPLAND AP      FAIR      57  10  15 N6        30.08S
CHINO          CLEAR     58  13  17 SE5       30.09R
ONTARIO        CLEAR     57  13  17 W3        30.08R
SAN BERNARDINO CLEAR     54  14  20 CALM      30.08
RIVERSIDE AP   CLEAR     57   8  14 CALM      30.08R
MARCH ARB      CLEAR     55   5  13 CALM      30.08S
HORSETHIEF CYN   N/A     55   7  14 SE5       30.08S
LAKE ELSINORE    N/A     49  15  25 CALM      30.05R
HEMET AP       FAIR      44  13  28 W3        30.08S
FRENCH VALLEY  FAIR      57   5  12 E6        30.09R
TEMECULA         N/A     54  22  28 CALM      30.05S

$$

SAN BERNARDINO AND RIVERSIDE COUNTY MOUNTAINS

CITY           SKY/WX    TMP DP  RH WIND       PRES   REMARKS
BIG BEAR AP      N/A     27   9  46 CALM      30.20S
BIG BEAR LAKE    N/A     29  16  57 CALM      30.24F
LK ARROWHEAD N   N/A     36  13  39 CALM      30.15F
WRIGHTWOOD       N/A     34   6  30 CALM      30.16S
IDYLLWILD        N/A     36  15  42 N2        30.08F

$$

SOUTHERN DESERT INCLUDING THE COACHELLA VALLEY

CITY           SKY/WX    TMP DP  RH WIND       PRES   REMARKS
PALM SPRINGS   CLEAR     56   7  14 NW6       30.17S
THOUSAND PALMS   N/A     54   7  15 N3        30.11F
PALM DESERT      N/A     54  24  31 CALM        N/A
INDIO            N/A     56  19  23 CALM      30.14S
THERMAL        CLEAR     47  17  30 N5        30.14S
BORREGO AP     FAIR      37  -2  18 CALM      30.14F
OCOTILLO WELLS   N/A     55   3  12 NW3       30.07F
CANEBRAKE        N/A     51   3  14 N6        30.13S
BLYTHE         CLEAR     50  -1  12 N6        30.13F
IMPERIAL AP    CLEAR     51  18  27 CALM      30.12S
EL CENTRO NAS  CLEAR     49   5  16 CALM      30.14S
YUMA AZ        CLEAR     57  13  17 NW8       30.12S

$$

UPPER DESERT

CITY           SKY/WX    TMP DP  RH WIND       PRES   REMARKS
HESPERIA         N/A     46   7  20 NE2       30.01S
APPLE VALLEY     N/A     48   9  20 S1        30.23S
PALMDALE         N/A    N/A N/A N/A MISG      30.13R
LANCASTER      CLEAR     38   0  20 W3        30.14R
EDWARDS AFB    CLEAR     44  -4  13 NE7       30.11R
GRAY BUTTE AP  FAIR      46  -1  14 VRB6      30.10R
DAGGETT        CLEAR     45  -3  13 E6        30.14S
29 PALMS N     CLEAR     48  -3  12 CALM      30.23S
29 PALMS JTNP    N/A     52   1  12 CALM      30.15S
NEEDLES        CLEAR     52  -5   9 SW10      30.17R

$$

REGIONAL REPORTS

CITY           SKY/WX    TMP DP  RH WIND       PRES   REMARKS
SANTA BARBARA  CLEAR     46  28  49 CALM      30.06S
SANDBERG       CLEAR     48  -1  13 E20G28    30.13S
LAS VEGAS NV   CLEAR     51   5  15 SW5       30.20R
PHOENIX AZ     CLEAR     58  15  18 W5        30.12R
TIJUANA        CLEAR     54  39  58 CALM      30.10
ENSENADA NW      N/A     58  32  37 N3        30.03S

$$

OFFSHORE ISLANDS

CITY           SKY/WX    TMP DP  RH WIND       PRES   REMARKS
CATALINA ARPT  CLEAR     59   7  12 CALM      30.09R
SAN NICOLAS IS CLEAR     50  27  40 W9        30.06S

$$

MARINE AND OFFSHORE BUOY REPORTS

STATION/POSITION SKY/WX   TEMP    WIND        PRES    VSBY  SWELL
                          AIR SEA DIR/SP/G                  HT/PER/DIR
                          (F)     (DEG/KT/KT) (MB)    (MI)  (FT/S/D)
TANNER BANKS               56      CALM  /  2 1017.8F         5/300/17
S CLEMENTE BASIN           57                 1018.0R         3/240/14
SAN NICOLAS IS.               56                N/A           3/310/11
SO. S. ROSA ISLA           53 55                N/A           5/300/11
W. S. BARBARA CH                  160/  6/  8 1018.3R
M. S. BARBARA CH           56 55  200/  4/  4 1018.5R         3/260/12
S. MONICA BASIN            57     350/  4/  4 1018.0F         2/200/15
S PEDRO CHANNEL               58                N/A           2/250/13
OCEANSIDE OFFSHR              59                N/A           2/200/15
TORREY PINES OTR              60                N/A           2/210/15
SAN DIEGO BAY                 62              1018.2S
IMPERIAL BEACH                59                N/A           2/260/13
POINT LOMA SOUTH              59                N/A           2/200/15

$$




USA.gov is the U.S. government's official web portal to all federal, state and local government web resources and services.